Flag for Canada Weather past 2 weeks in Haldimand, Ontario, Canada

Now
32 °F

Passing clouds.


Feels Like: 24 °F
Forecast: 23 / 33 °F
Wind: 9 mph from West

Location: Hamilton Airport

Current Time: Mar 27, 2015 at 3:38:54 AM

Latest Report: Mar 27, 2015 at 3:00 AM


Visibility: 15 mi

Pressure: 29.84 "Hg

Humidity: 87%

Dew point: 28 °F

Location of HaldimandLocation

Historic Weather in Haldimand — Graph

°F

Haldimand temperature yesterday

Maximum temperature yesterday: 43 °F (at 12:00 AM)
Minimum temperature yesterday: 32 °F (at 9:00 AM)
Average temperature yesterday: 36 °F

Past Weeks' High & Low Weather Summary

 TemperatureHumidityPressure
High48 °F (Mar 20, 4:00 PM)100% (Mar 14, 2:00 AM)30.65 "Hg (Mar 14, 2:00 AM)
Low14 °F (Mar 23, 7:00 AM)29% (Mar 19, 1:00 PM)29.68 "Hg (Mar 17, 2:00 AM)
Average31 °F68%30.14 "Hg
* Reported Mar 12 2:00 AM — Mar 27 2:00 AM, Haldimand, Weather by CustomWeather, © 2015

Note: Actual official high and low records may vary slightly from our data, if they occured in-between our weather recording intervals... More about our weather records

Advertising

Haldimand weather history for previous 24 hours

 ConditionsComfort  
Time TempWeatherWind HumidityBarometerVisibility
2:00 AM
Fri, Mar 27
32 °FPassing clouds.10 mph87%29.85 "Hg15 mi
1:00 AM32 °FPassing clouds.9 mph87%29.85 "Hg15 mi
12:00 AM34 °FPassing clouds.6 mph81%29.85 "Hg15 mi
11:00 PM
Thu, Mar 26
34 °FPassing clouds.6 mph81%29.86 "Hg15 mi
10:00 PM34 °FPassing clouds.7 mph81%29.87 "Hg15 mi
9:00 PM36 °FOvercast.7 mph81%29.86 "Hg15 mi
8:00 PM36 °FOvercast.8 mph81%29.84 "Hg15 mi
7:00 PM37 °FPartly sunny.8 mph75%29.83 "Hg10 mi
6:00 PM37 °FOvercast.8 mph81%29.81 "Hg8 mi
5:00 PM36 °FMostly cloudy.8 mph87%29.80 "Hg8 mi
4:00 PM36 °FMore clouds than sun.8 mph87%29.80 "Hg9 mi
3:00 PM36 °FMostly cloudy.8 mph87%29.79 "Hg8 mi
2:00 PM36 °FFog.8 mph93%29.82 "Hg6 mi
1:00 PM34 °FLight snow. Fog.8 mph93%29.83 "Hg2 mi
12:00 PM32 °FLight snow. Ice fog.6 mph100%29.84 "Hg1 mi
11:00 AM32 °FSnow. Ice fog.6 mph100%29.86 "Hg1 mi
10:00 AM32 °FSnow. Ice fog.6 mph100%29.87 "Hg1 mi
9:00 AM32 °FLight snow. Mostly cloudy.6 mph93%29.90 "Hg1 mi
8:00 AM36 °FLight rain. Mostly cloudy.8 mph87%29.92 "Hg15 mi
7:00 AM36 °FPassing clouds.3 mph81%29.88 "Hg15 mi
6:00 AM36 °FOvercast.5 mph87%29.90 "Hg15 mi
5:00 AM36 °FOvercast.6 mph81%29.92 "Hg15 mi
4:00 AM37 °FMostly cloudy.9 mph75%29.94 "Hg15 mi
3:00 AM37 °FOvercast.10 mph81%29.96 "Hg15 mi
Weather by CustomWeather, © 2015

See weather overviewHow to use our weather pages